Lapse_Rate
6.4 7.2 7.1 6.3 6.4 6.4 7.0 7.8 8.4 8.8 6.2 6.1 7.1 7.7 6.3 5.7 6.4 5.6 5.2 4.5 4.8 5.8 6.3 6.9 6.8 6.9 7.1 7.3 7.1 6.7 6.9 6.8 6.9 7.0 6.3 5.4 5.4 6.1 6.7 6.4 6.3 6.2 6.0 6.0
6.7 7.0 5.7 5.9 6.6 6.4 6.9 7.4 8.0 8.5 7.1 6.0 6.8 7.2 7.5 6.0 5.6 5.3 4.9 4.5 4.4 5.1 5.8 6.3 6.8 6.9 6.9 6.9 7.1 6.9 6.6 6.5 6.9 7.0 6.5 6.5 6.1 5.2 5.9 6.2 5.7 6.1 6.0 6.0
6.4 5.6 6.1 6.2 6.5 6.1 7.1 6.9 6.8 6.7 6.5 6.1 6.6 6.9 7.5 6.6 5.5 5.3 6.0 5.3 4.9 5.0 5.5 5.9 6.2 6.6 6.7 6.7 6.7 6.8 6.7 6.4 6.7 7.0 6.4 6.5 6.3 5.4 5.3 5.9 5.6 6.1 6.2 6.6
6.7 6.2 6.4 6.8 6.8 6.1 7.2 5.8 6.2 6.6 6.8 7.0 7.7 7.6 8.3 8.7 5.9 4.9 4.5 4.7 4.6 4.9 5.3 5.8 6.0 6.2 6.3 6.6 6.6 6.5 6.4 6.5 6.6 6.8 6.9 6.7 6.5 6.3 6.0 5.9 5.8 5.9 5.9 6.0
7.0 6.6 6.9 7.2 6.6 6.7 7.0 6.5 6.4 6.7 6.9 7.1 6.9 8.0 8.0 8.6 7.3 6.5 4.2 3.4 4.9 5.4 5.6 5.7 5.9 6.0 6.1 6.2 6.3 6.4 6.3 6.1 6.4 6.4 6.6 6.6 6.4 6.5 6.5 5.9 6.0 6.2 6.1 6.5
7.7 7.2 7.3 6.7 6.8 6.8 6.8 7.0 7.3 7.6 7.7 7.7 7.4 8.4 7.8 9.0 8.2 6.8 4.2 4.3 5.7 5.8 5.6 5.5 5.4 5.7 5.7 5.8 6.1 6.2 6.1 6.2 6.2 6.3 6.3 6.3 6.3 6.4 6.6 6.2 5.8 6.1 6.4 6.6
7.9 7.2 6.8 7.0 7.1 7.0 6.9 7.1 7.6 8.2 8.3 8.2 9.2 9.2 8.0 7.9 8.0 7.7 7.0 6.3 6.4 6.2 6.1 5.9 5.5 5.3 5.5 5.7 5.8 5.9 6.0 6.0 6.1 6.2 6.4 6.3 6.4 6.3 6.5 6.3 6.0 5.4 5.9 6.3
8.4 6.9 6.5 6.2 6.1 6.1 6.2 6.5 7.0 7.1 8.2 7.9 8.4 8.6 7.1 7.0 7.2 7.6 7.5 7.1 6.9 6.7 6.6 6.4 6.1 5.7 5.4 5.4 5.6 5.8 5.8 6.0 6.0 6.2 6.4 6.4 6.3 6.4 6.4 6.4 6.2 6.0 5.3 5.7
7.0 6.9 6.3 6.4 6.1 5.9 6.2 6.6 6.3 6.3 6.8 7.1 8.1 8.4 6.8 6.9 6.9 7.0 7.2 7.0 6.7 7.0 7.0 6.8 6.4 6.3 6.1 5.8 5.5 5.4 5.7 5.8 5.9 6.0 6.2 6.3 6.4 6.0 6.4 6.4 6.6 6.4 6.4 6.4
6.5 6.5 6.2 6.0 6.1 5.9 5.9 5.8 6.3 6.2 6.5 7.0 8.1 8.8 7.2 6.9 6.9 6.9 6.7 6.8 6.9 6.7 6.5 6.5 6.8 6.6 6.4 6.4 6.2 5.6 5.6 5.8 5.8 5.8 6.1 6.2 6.3 6.2 6.1 6.4 6.6 6.4 6.4 6.4
6.0 6.3 6.4 6.0 5.7 5.7 5.7 6.1 5.9 6.1 6.4 6.6 6.6 7.0 6.7 6.5 6.3 5.9 5.9 5.7 5.6 5.7 5.7 6.0 6.6 6.8 6.8 6.7 6.5 6.4 6.1 5.8 6.0 5.9 5.9 6.2 6.2 6.2 6.2 6.4 6.3 6.5 6.5 6.2
6.0 6.1 6.2 6.7 5.7 5.9 5.7 5.5 5.7 5.9 6.3 6.1 6.0 6.2 6.2 6.1 6.2 6.2 5.8 5.3 5.1 5.0 4.8 5.0 6.0 6.1 6.5 6.5 6.6 7.1 6.5 6.4 6.2 6.2 6.1 5.9 6.1 6.2 6.3 6.6 6.7 6.6 6.5 6.8
5.8 6.0 6.6 6.3 5.6 5.6 5.2 5.3 5.5 5.4 5.4 5.5 5.8 6.2 5.7 5.5 5.6 5.5 5.3 5.3 5.1 5.0 5.0 5.4 5.5 5.7 6.1 6.5 6.6 6.6 6.8 6.7 6.5 6.3 6.2 5.9 5.9 6.0 6.1 6.5 6.7 6.9 6.6 6.7
5.7 5.7 6.0 6.2 5.8 5.4 5.2 5.2 5.3 5.4 5.4 5.8 6.2 6.1 5.7 5.5 5.3 5.3 5.1 5.0 4.9 4.8 4.6 4.9 4.8 4.6 5.1 5.3 5.9 6.3 6.5 6.6 6.7 6.3 6.4 5.9 5.8 5.7 6.1 6.1 7.0 6.6 6.9 6.8
5.2 5.0 5.1 5.3 5.4 5.2 4.7 5.1 5.4 5.3 5.2 5.4 5.7 5.4 5.2 5.0 4.9 4.7 4.7 4.9 4.6 4.7 5.0 4.9 4.8 4.4 4.4 4.7 5.0 5.4 6.1 6.5 6.7 6.7 6.2 6.0 5.9 5.6 5.9 6.3 6.4 6.9 7.1 7.1
5.0 4.7 4.5 5.3 5.2 5.1 4.9 4.9 5.0 5.3 5.2 5.1 5.1 5.4 5.2 4.7 4.7 5.2 4.4 4.1 4.6 5.0 5.1 5.0 5.0 4.9 4.8 4.7 4.7 4.9 5.6 6.3 6.6 6.8 6.9 6.2 6.0 6.0 5.8 6.2 6.4 6.8 7.0 6.9
5.2 4.8 4.2 4.6 5.2 5.2 5.1 5.3 5.3 5.3 5.1 4.9 4.7 5.1 5.0 5.1 4.9 4.6 4.3 4.6 4.7 4.7 4.7 5.0 5.0 4.5 4.9 4.5 4.7 4.9 5.4 5.8 6.4 6.9 7.0 6.8 6.2 6.4 5.9 6.1 6.4 6.5 6.6 6.9
4.9 4.5 4.5 4.8 5.7 6.4 6.4 5.6 5.4 5.1 5.0 5.1 5.2 5.2 4.6 4.5 4.6 4.5 4.5 4.6 4.8 5.0 4.8 4.9 4.9 4.3 4.3 4.5 4.5 4.4 4.8 5.1 5.9 6.4 6.7 6.9 6.4 6.5 6.4 6.4 6.4 7.0 7.3 7.0
4.6 4.5 4.8 5.4 6.0 6.5 6.7 5.9 5.2 4.9 5.5 5.4 5.5 4.9 4.8 4.7 4.8 4.5 4.5 4.6 4.8 5.2 5.2 5.2 5.1 4.7 4.3 4.3 4.4 4.3 4.8 4.8 5.7 6.1 6.9 6.8 6.6 6.6 6.4 6.5 6.7 6.9 7.1 7.3
4.9 4.6 4.7 5.0 5.2 5.7 5.9 5.4 5.1 5.0 4.7 5.2 5.1 5.1 4.9 5.0 5.1 4.8 4.9 4.9 4.8 4.8 4.8 5.1 5.3 4.9 3.9 4.3 4.1 4.2 4.7 5.2 5.9 5.8 5.8 6.1 5.8 5.9 6.7 6.6 5.9 6.7 6.9 7.0
5.1 4.9 4.8 5.0 5.0 5.3 5.5 5.4 4.9 4.3 4.9 4.9 5.2 5.1 5.2 5.2 5.4 5.6 5.5 5.5 5.4 5.2 5.2 5.2 5.3 4.9 4.6 4.4 4.4 4.1 4.4 5.0 5.1 4.9 5.9 5.7 5.6 6.5 6.7 6.6 6.6 6.6 7.4 7.3
5.1 4.9 5.0 5.2 5.3 5.6 5.8 5.2 4.7 4.9 5.1 5.1 4.8 4.4 5.2 5.5 5.6 5.6 5.9 6.1 6.0 5.7 5.4 5.5 5.3 5.1 4.7 4.3 4.7 4.6 4.5 4.9 5.1 5.2 5.5 5.7 6.4 6.2 6.7 6.7 7.1 7.5 7.5 7.4
5.5 5.7 5.5 5.8 6.8 6.8 6.6 6.2 5.9 5.7 5.6 5.5 5.2 5.3 5.6 5.7 5.7 6.0 6.1 6.2 6.5 6.5 6.2 5.8 5.9 5.5 5.3 5.0 4.7 5.1 5.4 5.3 5.4 5.2 5.2 5.5 6.0 6.5 7.4 7.3 7.1 7.0 6.8 6.7
5.5 5.5 6.1 6.3 7.2 7.1 7.1 6.8 6.6 6.3 6.1 6.0 5.8 5.8 5.9 5.9 5.9 6.0 6.1 6.2 6.3 6.2 6.3 6.3 6.1 6.0 5.9 5.3 4.8 5.2 5.4 5.4 5.2 5.5 5.6 5.6 5.7 6.1 6.5 6.7 6.5 6.5 6.6 6.6
5.9 5.3 6.2 7.0 7.4 7.2 7.0 7.0 6.9 6.7 6.6 6.4 6.3 6.1 6.1 6.1 6.2 6.2 6.3 6.4 6.3 6.4 6.4 6.5 6.5 6.7 6.5 6.1 5.9 5.7 5.7 5.8 5.8 5.9 6.2 6.1 6.1 6.0 6.0 6.0 5.8 5.9 6.0 6.3
6.8 7.0 6.3 7.1 7.0 7.0 7.0 7.0 6.9 6.9 6.8 6.7 6.6 6.5 6.4 6.4 6.4 6.4 6.5 6.5 6.6 6.5 6.5 6.5 6.4 6.5 6.7 6.8 6.8 6.7 6.5 6.3 6.4 6.4 6.3 6.4 6.3 6.3 6.3 6.3 6.2 6.0 5.9 6.0
Wind_Speed
2 10 4 12 9 11 11 11 12 19 10 3 5 12 16 10 7 7 6 7 9 9 11 11 10 11 6 7 9 10 11 12 9 4 2 7 3 8 7 13 14 14 12 13
8 4 9 6 8 10 11 10 11 7 8 2 8 11 11 13 8 7 6 8 8 10 10 11 11 11 11 10 8 8 9 9 8 5 5 3 3 6 6 13 15 17 18 16
10 12 6 6 4 12 10 7 12 13 15 10 12 17 15 15 13 10 9 7 8 9 10 11 12 11 11 12 13 8 7 8 8 9 5 4 3 3 4 2 1 7 15 18
7 3 5 4 6 8 10 9 9 11 12 12 15 12 13 18 16 12 9 7 7 9 10 10 12 12 11 11 11 11 9 6 7 10 8 8 3 6 5 6 7 7 14 16
7 9 12 8 10 8 7 9 12 14 14 15 17 11 13 13 16 15 11 6 8 9 10 10 10 12 11 11 11 9 10 10 6 8 9 7 8 6 6 8 12 10 10 13
9 6 8 8 10 5 11 13 15 15 13 12 18 15 16 4 7 13 8 6 6 8 9 11 11 11 11 11 10 12 10 10 9 6 8 9 10 10 9 10 8 9 8 9
9 9 5 12 12 3 10 11 6 6 8 12 17 12 13 10 10 8 5 6 8 8 10 11 13 12 10 12 13 11 13 12 10 10 8 8 10 10 11 9 8 7 8 5
3 5 9 9 7 7 10 6 5 5 8 11 10 6 7 10 8 6 6 7 8 8 9 12 13 12 12 13 13 12 13 13 13 10 10 9 9 7 7 9 4 7 8 9
8 3 3 5 6 7 6 4 9 6 12 11 10 5 7 6 8 7 8 9 12 11 12 14 13 12 13 14 14 13 12 13 13 12 11 11 9 10 9 12 9 10 10 10
5 4 3 2 3 3 4 7 3 1 5 10 8 11 3 5 6 9 10 10 13 13 13 11 11 13 13 14 13 13 13 13 13 14 12 11 9 10 8 10 10 8 8 8
4 5 3 2 4 2 3 3 3 6 6 5 7 1 4 5 6 8 11 10 10 11 11 10 9 11 12 13 13 12 10 13 13 13 12 13 10 10 9 9 10 7 7 6
4 5 5 6 4 3 5 6 5 4 4 7 8 9 2 3 7 10 14 14 11 10 10 9 9 10 11 11 10 12 10 9 11 13 13 13 11 10 9 8 9 4 4 6
9 4 8 7 5 6 5 7 9 9 8 11 8 4 3 8 9 12 13 14 13 11 9 8 10 9 9 10 11 11 11 10 9 11 13 12 11 10 8 8 7 4 4 4
3 7 8 8 4 3 8 11 11 11 8 11 11 13 13 13 11 13 14 13 13 13 9 10 9 9 9 12 12 11 11 11 11 11 12 12 11 9 8 8 5 5 2 4
3 6 8 7 10 15 18 18 16 15 16 15 11 16 15 8 11 12 14 13 12 13 13 12 10 8 10 11 13 13 11 11 10 11 11 11 10 9 8 10 5 4 6 5
4 6 2 6 13 11 16 17 18 19 17 17 16 16 10 9 12 14 15 15 12 14 15 14 13 9 10 11 9 9 11 10 10 11 11 12 9 9 8 10 6 6 4 6
8 3 5 8 6 16 14 5 5 10 6 4 9 10 8 13 14 14 13 13 10 14 14 15 14 11 9 9 7 9 10 9 8 9 9 10 8 8 7 3 9 7 4 3
9 7 6 8 12 6 1 4 5 4 8 7 6 10 9 11 13 14 10 6 10 11 13 13 12 13 12 10 9 10 7 7 6 5 5 3 3 5 3 2 5 4 5 9
10 7 6 4 9 15 11 3 2 1 5 8 10 6 4 10 13 6 4 4 6 7 8 8 10 12 12 9 9 9 7 7 6 5 6 6 6 4 7 7 8 4 8 9
5 7 5 8 8 5 2 3 8 6 4 8 4 2 3 5 5 2 6 6 7 8 6 7 8 9 10 9 9 8 7 6 5 5 5 6 4 5 7 7 10 8 9 9
5 5 9 9 7 8 4 7 4 3 1 0 5 7 7 5 5 4 6 7 8 7 9 8 5 3 6 8 7 7 6 6 5 3 4 4 6 9 6 7 6 7 8 8
3 2 3 5 4 5 10 7 5 1 3 6 5 5 4 9 10 9 8 9 9 9 8 5 3 4 4 5 6 5 3 4 6 4 6 8 8 7 6 8 8 8 7 8
4 5 3 3 5 2 9 4 6 6 6 6 4 5 2 4 4 4 7 10 7 12 9 7 2 5 5 4 6 7 3 6 6 7 8 7 6 8 8 8 7 6 6 5
9 12 5 6 5 11 15 13 13 10 11 8 7 5 3 4 5 5 3 3 4 5 5 3 1 4 3 4 5 5 7 4 7 6 4 6 8 9 9 6 7 6 4 5
9 6 8 14 17 16 14 13 14 14 11 10 9 7 5 4 5 2 4 3 3 4 5 4 5 4 5 5 5 7 7 7 8 8 5 5 6 9 8 9 7 6 7 5
10 13 9 5 7 8 6 10 15 15 14 12 11 9 7 6 5 2 3 1 2 3 3 5 6 6 6 7 7 7 6 7 7 7 5 4 4 6 8 7 6 8 7 9
Wind_Direction
208 258 41 21 4 326 308 303 316 94 97 335 257 276 159 151 159 174 124 76 69 56 52 38 33 24 74 55 41 31 8 6 10 344 351 254 194 154 170 177 170 165 180 177
246 105 37 1 348 318 311 303 291 271 90 43 291 276 249 156 162 103 73 70 47 45 33 29 21 21 12 26 65 44 19 11 5 2 332 314 257 192 183 184 183 178 180 179
47 35 4 329 345 344 297 306 355 338 341 303 263 266 264 157 135 134 116 80 54 34 26 20 15 15 6 14 11 48 43 10 356 356 334 305 262 188 161 247 209 219 177 174
43 51 325 300 67 354 310 26 329 309 301 291 303 287 244 185 157 173 118 73 41 18 22 19 10 5 359 10 9 7 11 44 14 356 346 348 313 245 180 199 194 193 179 179
53 41 357 24 6 341 330 339 300 289 280 285 271 267 259 139 170 173 104 56 35 15 11 14 4 358 1 0 359 358 356 358 41 14 347 336 326 321 230 188 196 187 198 199
84 109 42 355 306 265 309 295 284 258 251 259 261 254 258 358 49 86 77 30 13 358 354 3 353 353 2 354 355 340 345 349 355 17 357 338 321 320 322 201 192 204 207 199
143 62 105 2 330 182 351 321 293 247 217 240 256 246 58 96 72 62 29 357 352 350 357 352 343 346 351 352 345 339 337 336 344 337 350 336 323 306 297 265 188 189 208 210
340 191 11 15 21 328 306 325 311 312 322 319 308 246 95 90 63 30 5 349 338 349 354 343 332 337 352 346 336 337 331 326 330 334 338 327 317 310 304 312 202 198 219 195
358 43 144 43 349 343 2 331 334 307 273 266 260 150 122 102 17 358 345 340 341 346 334 330 336 351 342 334 330 328 322 321 319 325 322 315 315 310 314 314 308 233 216 208
334 307 89 14 294 207 282 322 343 250 286 295 290 320 126 329 340 341 340 341 328 329 330 334 342 335 329 324 320 329 318 310 315 314 310 305 306 300 300 303 289 285 228 210
311 270 183 200 181 256 228 264 330 299 277 291 304 3 176 227 303 332 315 326 335 325 324 336 341 321 323 316 311 310 313 307 304 300 304 300 299 296 294 292 297 308 241 212
40 305 291 301 85 183 250 287 278 273 306 305 296 289 194 324 325 324 334 323 317 320 336 340 338 321 316 310 313 307 306 300 298 297 293 291 291 289 289 293 297 294 293 155
353 260 301 166 194 210 240 267 282 267 256 258 276 274 304 300 335 337 325 322 329 328 328 334 315 314 324 321 315 313 309 306 301 292 286 284 281 280 283 274 282 298 236 123
318 276 287 274 325 292 280 261 254 250 267 274 280 310 320 325 343 331 323 317 317 318 338 319 309 330 327 323 313 314 312 299 291 280 277 275 274 274 275 275 263 249 214 139
257 280 315 321 299 280 276 275 272 258 262 268 292 296 306 342 318 323 315 320 329 328 323 320 324 341 321 317 311 314 303 295 293 281 274 267 269 270 272 258 241 224 212 154
202 273 15 294 286 261 269 266 267 263 262 263 283 279 292 320 329 319 316 323 335 330 323 323 328 327 317 310 305 302 302 293 289 278 272 266 258 267 271 245 222 207 199 179
281 252 300 286 307 309 284 280 263 259 246 191 254 271 297 307 313 305 320 319 335 324 320 325 327 329 331 326 320 302 302 298 283 270 271 265 254 254 255 237 207 206 167 105
273 277 268 283 303 273 153 194 176 233 275 213 246 254 268 282 296 304 322 21 322 320 317 321 326 327 326 345 327 313 306 303 298 295 286 341 346 258 178 173 97 93 70 69
230 271 299 296 302 283 279 185 181 146 284 222 235 259 258 292 305 292 33 339 298 297 303 302 308 320 325 341 333 327 319 334 336 354 356 19 348 45 57 69 64 62 90 81
243 254 246 289 300 286 194 183 177 165 269 79 144 253 260 306 302 327 290 305 299 296 294 286 292 321 335 340 334 330 335 337 3 359 9 12 21 48 50 44 69 78 85 89
263 246 250 268 260 256 164 203 167 254 72 95 174 196 206 228 222 241 295 292 277 269 286 278 294 309 326 338 327 323 331 354 14 4 52 52 41 62 61 60 64 85 88 92
245 279 246 233 250 267 166 177 214 122 225 255 281 244 163 208 239 247 247 254 255 264 270 232 298 317 311 323 311 312 348 23 7 29 66 57 55 65 77 75 72 73 86 90
234 205 289 276 242 184 206 193 233 222 254 273 272 300 296 301 330 185 179 224 239 217 242 122 184 283 291 272 290 306 254 127 71 46 53 56 62 77 80 81 75 72 78 91
221 192 231 275 275 250 236 227 231 234 238 252 255 255 292 298 328 325 347 354 355 4 21 22 125 288 254 224 269 7 10 34 128 105 87 91 86 66 48 57 55 55 71 93
267 254 243 255 268 259 245 232 216 224 221 234 243 250 262 269 287 335 322 1 5 18 21 4 168 252 37 56 37 34 16 20 47 40 82 102 90 76 61 49 38 58 42 31
246 238 227 246 266 238 279 207 205 212 215 218 226 232 232 239 259 274 282 24 346 25 9 12 34 32 34 50 55 51 31 41 43 68 52 20 67 131 134 117 98 63 67 52